Regional Weather Roundup
Issued by NWS Jackson, KY

Home | Current Version | Previous Version | Text Only | Print | Product List | Glossary Off
Versions: 1 2 3 4 5 6 7 8 9 10 11 12 13 14 15 16 17 18 19 20 21 22 23 24 25 26 27 28 29 30 31 32 33 34 35 36 37 38 39 40 41 42 43 44 45 46 47 48 49 50

000
ASUS43 KJKL 222110
RWRJKL

EAST KENTUCKY HOURLY WEATHER ROUNDUP
NATIONAL WEATHER SERVICE JACKSON KY
500 PM EDT FRI JUL 22 2016

NOTE: "FAIR" INDICATES FEW OR NO CLOUDS BELOW 12,000 FEET WITH
NO SIGNIFICANT WEATHER AND/OR OBSTRUCTIONS TO VISIBILITY.

* THESE REPORTS ARE NOT UNDER NWS QUALITY CONTROL AND MAY NOT
  REPORT WEATHER SUCH AS PRECIPITATION AND FOG.

KYZ079-080-083-085-087-088-110-112-115-119-120-222200
...EASTERN KENTUCKY...

CITY           SKY/WX    TMP DP  RH WIND       PRES   REMARKS
JACKSON        PTSUNNY   87  71  58 NW3       30.07F HX  93
LONDON         CLOUDY    88  67  49 VRB5      30.06F HX  91
SOMERSET*      CLOUDY    88  70  55 CALM      30.05F HX  92
MONTICELLO*    MOSUNNY  N/A N/A N/A N9        30.05F
WILLIAMSBURG*  CLOUDY    90  70  51 CALM      30.06F HX  95
MIDDLESBORO*   SUNNY     91  69  46 NE5       30.06F HX  96
HARLAN APT*      N/A     88  63  42 NW3       30.08F
PIKE CO APT*   PTSUNNY   86  70  58 CALM      30.09S HX  91
BIG SANDY APT* CLOUDY    83  77  82 CALM      30.07S HX  93
MOREHEAD APT*  CLOUDY    79  68  69 N13G20    30.10R
ASHLAND*       CLOUDY    75  70  83 CALM      30.05F
$$

KYZ035-036-041-042-044-050-067-078-099-222200
...CENTRAL KENTUCKY...

CITY           SKY/WX    TMP DP  RH WIND       PRES   REMARKS
MT STERLING*   HVY RAIN  82  77  83 NW3       30.07R HX  91
FLEMING/MASON* HVY RAIN  71  70  97 E7        30.10F
DANVILLE*      CLOUDY    88  73  62 S5        30.05F HX  96
RICHMOND*      CLOUDY    86  73  66 NW3       30.05F HX  93
LEXINGTON      CLOUDY    88  74  63 W6        30.06F HX  96
FRANKFORT      CLOUDY    87  73  62 NW3       30.04F HX  94
LOUISVILLE     CLOUDY    91  73  55 N3        30.01F HX  99
LEBANON*         N/A     86  75  70 CALM      30.04F HX  95
GLASGOW*       CLOUDY    81  75  81 N9        30.07R THUNDER
BOWLING GREEN  PTSUNNY   78  71  79 CALM      30.02F THUNDER
$$

KYZ091>093-OHZ055-061-077-WVZ005-015-034-035-042-222200
...SOUTHERN OHIO/WEST VIRGINIA...

CITY           SKY/WX    TMP DP  RH WIND       PRES   REMARKS
COVINGTON      CLOUDY    85  73  67 S6        30.04F HX  91
COLUMBUS       MOSUNNY   86  67  52 SW12      30.01R
DAYTON         PTSUNNY   83  75  77 SW8       30.04F HX  90
WILMINGTON     MOSUNNY   78  72  81 S8        30.03F
HUNTINGTON       N/A     74  71  91 SW5       30.06F
CHARLESTON     PTSUNNY   81  69  67 W3        30.05F
PINEVILLE*       N/A     85  69  60 MISG      30.15S
BECKLEY          N/A     81  65  58 N8        30.14F
BLUEFIELD        N/A     79  61  53 NW5       30.17F
LOGAN CO APT*    N/A     84  70  61 N3        30.09S
$$

VAZ002-007-008-TNZ017-027-036-066-071-222200
...SOUTHWEST VIRGINIA/EAST TENNESSEE...

CITY           SKY/WX    TMP DP  RH WIND       PRES   REMARKS
WISE*            N/A     86  54  32 NE5       30.16F
JONESVILLE*      N/A     90  68  48 W3        30.08F HX  93
ABINGDON*        N/A     88  64  45 NW3       30.11F
BRISTOL        PTSUNNY   93  63  36 NW8       30.07F HX  94
MORRISTOWN*    CLEAR     90  70  51 VRB3      30.05F HX  95
SEVIERVILLE*     N/A     95  64  36 W7        30.02F HX  97
KNOXVILLE      CLOUDY    88  65  46 W9        30.02F THUNDER HX  90
OAK RIDGE      CLOUDY    94  67  41 NW5       30.04F HX  97
CROSSVILLE     MOSUNNY   86  69  56 VRB5      30.10F HX  90
NASHVILLE      CLOUDY    92  71  50 SE5       30.02F HX  98
$$

...KEY TO REMARKS...
VSB - VISIBILITY IN MILES
WCI - WIND CHILL INDEX
HX  - HEAT INDEX

$$



USA.gov is the U.S. government's official web portal to all federal, state and local government web resources and services.